Вернуться в каталог

STARLINK-30154

АктивенСвязьVLEO
NORAD 57495·PAYLOAD·🇺🇸 United States

Запущен Aug 7, 2023 с Cape Canaveral Space Force Station

Loading…

Ближайшие Пролёты (ближайшие 24 часа)

TLE

СвежийSource: CelesTrak SupGP

Эпоха: Sep 14, 2026, 22:01 UTC

1 57495C 23113A   26257.91784722  .00035625  00000+0  12903-2 0  2576
2 57495  43.0045  27.2305 0002196 273.9060 212.7076 15.27561882    13

Отслеживайте STARLINK-30154 в реальном времени с AllMySat

Download on the App Store